Location: Newark
(34.7229°N, 135.2511°E)
Time: 19:10:16
(UTC+00:00)

OTV 5 (USA 277) - Visible Passes

Search period start: 18 August 2019 00:00
Search period end: 28 August 2019 00:00
Orbit: 305 x 329 km, 54.5° (Epoch: 11 August)

Date Brightness Start Highest point End Pass type
(mag) Time Alt. Az. Time Alt. Az. Time Alt. Az.
20 Aug ? 18:55:27 10° NNE 18:56:24 11° NE 18:57:21 10° ENE visible
21 Aug ? 19:08:48 10° NNW 19:11:09 28° NE 19:13:29 10° ESE visible
22 Aug ? 19:23:05 10° NW 19:25:43 76° SW 19:28:22 10° SE visible
23 Aug ? 10:07:31 10° SSE 10:09:03 14° SE 10:10:36 10° E visible
23 Aug ? 11:41:01 10° W 11:42:09 18° WNW 11:42:09 18° WNW visible
23 Aug ? 19:39:05 16° W 19:40:10 19° SW 19:42:10 10° S visible
24 Aug ? 10:20:51 10° SSW 10:23:26 50° SE 10:26:01 10° NE visible
25 Aug ? 10:35:28 10° WSW 10:37:59 38° NW 10:40:29 10° NNE visible
26 Aug ? 10:51:07 10° WNW 10:52:41 14° NW 10:54:15 10° N visible
